Date String (YYYY-MM-DD hh:mm:ss) UTC,Instrument flags,absolute air pressure of the measurement (hPa),sample flow rate (lpm),inlet stack bypass flow (lpm),air temperature of the measurement (°C),ambient temperature measured by the external sensor (°C),aerosol sample conditioner tube jacket temperature (°C),OPC LED temperature (°C),internal box temperature (°C),relative humidity of the measurement (%),span deviation,mass concentration of particles derived from Lorenz-Mie calculation of OPC scattering (μg/m³),mass concentration of particles derived from Lorenz-Mie calculation of OPC scattering (μg/m³),mass concentration of particles derived from Lorenz-Mie calculation of OPC scattering (μg/m³)
DateTimeUTC,F1_M11,P_M11,Q1_M11,Q2_M11,T1_M11,T2_M11,T3_M11,T4_M11,T5_M11,U1_M11,ZSPAN_M11,X0_M11,X2_M11,X1_M11
2024-01-31 15:00:00,SystemResetWarning,0831.9,5.00,000.00,021.4,020.6,000.0,029.7,022.9,10.0,0000.0,0009.57,0003.24,0002.84
2024-01-31 15:01:00,SystemResetWarning,0831.9,5.00,000.00,021.4,020.6,000.0,029.7,022.9,10.0,0000.0,0009.49,0003.20,0002.79
2024-01-31 15:02:00,SystemResetWarning,0831.9,5.00,000.00,021.5,020.7,000.0,029.7,022.9,10.6,0000.0,0008.94,0003.19,0002.75
2024-01-31 15:03:00,SystemResetWarning,0831.8,4.99,000.00,021.5,020.7,000.0,029.7,022.9,10.7,0000.0,0008.79,0003.16,0002.69
2024-01-31 15:04:00,SystemResetWarning,0831.8,4.99,000.00,021.5,020.7,000.0,029.7,022.9,10.9,0000.0,0009.16,0003.13,0002.64
2024-01-31 15:05:00,SystemResetWarning,0831.9,5.00,000.00,021.5,020.7,000.0,029.7,022.9,11.1,0000.0,0009.16,0003.09,0002.58
2024-01-31 15:06:00,SystemResetWarning,0832.0,5.00,000.00,021.5,020.7,000.0,029.7,023.0,10.7,0000.0,0008.78,0003.00,0002.50
2024-01-31 15:07:00,SystemResetWarning,0831.7,5.00,000.00,021.5,020.7,000.0,029.7,023.0,10.6,0000.0,0007.61,0002.92,0002.43
2024-01-31 15:08:00,SystemResetWarning,0831.7,5.01,000.00,021.5,020.8,000.0,029.8,023.0,10.1,0000.0,0006.62,0002.81,0002.35
2024-01-31 15:09:00,SystemResetWarning,0831.7,5.00,000.00,021.5,020.8,000.0,029.8,023.0,09.8,0000.0,0006.98,0002.71,0002.26
2024-01-31 15:10:00,SystemResetWarning,0831.7,5.00,000.00,021.5,020.8,000.0,029.8,023.0,09.7,0000.0,0006.22,0002.72,0002.24
2024-01-31 15:11:00,SystemResetWarning,0831.7,5.00,000.00,021.5,020.8,000.0,029.8,023.0,09.8,0000.0,0005.98,0002.76,0002.28
2024-01-31 15:12:00,SystemResetWarning,0831.8,4.99,000.00,021.6,020.8,000.0,029.8,023.1,10.2,0000.0,0006.23,0002.86,0002.35
2024-01-31 15:13:00,SystemResetWarning,0832.0,4.99,000.00,021.6,020.8,000.0,029.8,023.1,10.5,0000.0,0006.28,0002.87,0002.39
2024-01-31 15:14:00,SystemResetWarning,0832.0,5.00,000.00,021.6,020.9,000.0,029.8,023.1,11.8,0000.0,0006.23,0002.86,0002.41
2024-01-31 15:15:00,SystemResetWarning,0832.2,5.00,000.00,021.6,020.9,000.0,029.8,023.1,11.8,0000.0,0005.44,0002.81,0002.40
2024-01-31 15:16:00,SystemResetWarning,0832.2,5.00,000.00,021.6,020.9,000.0,029.8,023.1,11.5,0000.0,0005.40,0002.76,0002.38
2024-01-31 15:17:00,SystemResetWarning,0832.1,5.00,000.00,021.6,020.9,000.0,029.8,023.1,11.2,0000.0,0005.39,0002.74,0002.36
2024-01-31 15:18:00,SystemResetWarning,0832.0,5.01,000.00,021.6,020.9,000.0,029.8,023.1,11.0,0000.0,0005.35,0002.73,0002.35
2024-01-31 15:19:00,SystemResetWarning,0832.1,5.00,000.00,021.6,020.9,000.0,029.9,023.1,11.0,0000.0,0005.07,0002.75,0002.35
2024-01-31 15:20:00,SystemResetWarning,0832.1,5.00,000.00,021.6,020.9,000.0,029.9,023.1,11.0,0000.0,0004.70,0002.79,0002.34
2024-01-31 15:21:00,SystemResetWarning,0831.9,5.00,000.00,021.6,020.9,000.0,029.9,023.1,10.6,0000.0,0004.17,0002.70,0002.30
2024-01-31 15:22:00,SystemResetWarning,0831.8,4.99,000.00,021.7,021.0,000.0,029.9,023.2,10.4,0000.0,0004.00,0002.60,0002.20
2024-01-31 15:23:00,SystemResetWarning,0831.7,5.00,000.00,021.7,021.0,000.0,029.9,023.2,10.1,0000.0,0003.67,0002.44,0002.07
2024-01-31 15:24:00,SystemResetWarning,0832.0,5.00,000.00,021.7,021.0,000.0,029.9,023.2,10.2,0000.0,0003.55,0002.37,0001.97
2024-01-31 15:25:00,SystemResetWarning,0831.7,5.00,000.00,021.7,021.0,000.0,029.9,023.2,10.6,0000.0,0004.21,0002.32,0001.91
2024-01-31 15:26:00,SystemResetWarning,0832.0,5.00,000.00,021.7,021.0,000.0,029.9,023.2,11.2,0000.0,0004.27,0002.28,0001.86
2024-01-31 15:27:00,SystemResetWarning,0832.4,5.00,000.00,021.7,021.0,000.0,029.9,023.2,11.6,0000.0,0004.41,0002.28,0001.82
2024-01-31 15:28:00,SystemResetWarning,0831.8,5.00,000.00,021.7,021.0,000.0,029.9,023.3,11.8,0000.0,0004.32,0002.24,0001.80
2024-01-31 15:29:00,SystemResetWarning,0832.0,5.01,000.00,021.7,021.1,000.0,030.0,023.3,12.0,0000.0,0004.53,0002.21,0001.79
2024-01-31 15:30:00,SystemResetWarning,0832.2,5.00,000.00,021.7,021.1,000.0,030.0,023.3,11.5,0000.0,0005.14,0002.19,0001.78
2024-01-31 15:31:00,SystemResetWarning,0831.8,5.00,000.00,021.8,021.1,000.0,030.0,023.3,11.0,0000.0,0005.03,0002.14,0001.78
2024-01-31 15:32:00,SystemResetWarning,0831.8,4.99,000.00,021.8,021.1,000.0,030.0,023.3,11.1,0000.0,0005.15,0002.16,0001.79
2024-01-31 15:33:00,SystemResetWarning,0831.9,4.99,000.00,021.8,021.1,000.0,030.0,023.3,11.0,0000.0,0005.19,0002.17,0001.79
2024-01-31 15:34:00,SystemResetWarning,0831.9,4.99,000.00,021.8,021.2,000.0,030.0,023.3,11.0,0000.0,0006.01,0002.16,0001.79
2024-01-31 15:35:00,SystemResetWarning,0831.9,5.01,000.00,021.8,021.2,000.0,030.0,023.3,11.0,0000.0,0005.83,0002.09,0001.77
2024-01-31 15:36:00,SystemResetWarning,0831.9,5.01,000.00,021.8,021.2,000.0,030.0,023.4,10.9,0000.0,0004.93,0002.04,0001.74
2024-01-31 15:37:00,SystemResetWarning,0831.8,5.01,000.00,021.9,021.2,000.0,030.1,023.4,11.2,0000.0,0004.71,0002.00,0001.70
2024-01-31 15:38:00,SystemResetWarning,0831.8,5.01,000.00,021.9,021.2,000.0,030.1,023.4,11.4,0000.0,0004.41,0001.92,0001.67
2024-01-31 15:39:00,SystemResetWarning,0831.9,4.99,000.00,021.9,021.2,000.0,030.1,023.4,11.7,0000.0,0004.63,0001.87,0001.63
2024-01-31 15:40:00,SystemResetWarning,0831.9,5.00,000.00,021.9,021.3,000.0,030.1,023.4,11.8,0000.0,0004.59,0001.88,0001.62
2024-01-31 15:41:00,SystemResetWarning,0831.9,5.00,000.00,021.9,021.3,000.0,030.1,023.4,11.9,0000.0,0003.98,0001.92,0001.64
2024-01-31 15:42:00,SystemResetWarning,0831.8,4.99,000.00,021.9,021.3,000.0,030.1,023.5,11.9,0000.0,0004.04,0001.98,0001.68
2024-01-31 15:43:00,SystemResetWarning,0831.8,5.00,000.00,021.9,021.3,000.0,030.1,023.4,12.4,0000.0,0004.04,0002.03,0001.72
2024-01-31 15:44:00,SystemResetWarning,0831.9,5.00,000.00,022.0,021.3,000.0,030.1,023.5,12.2,0000.0,0004.13,0002.08,0001.76
2024-01-31 15:45:00,SystemResetWarning,0832.3,5.01,000.00,022.0,021.4,000.0,030.2,023.5,10.9,0000.0,0003.44,0002.17,0001.81
2024-01-31 15:46:00,SystemResetWarning,0831.7,5.01,000.00,022.0,021.4,000.0,030.2,023.5,10.3,0000.0,0003.71,0002.29,0001.89
2024-01-31 15:47:00,SystemResetWarning,0831.7,4.99,000.00,022.0,021.4,000.0,030.2,023.5,10.3,0000.0,0003.90,0002.40,0001.96
2024-01-31 15:48:00,SystemResetWarning,0831.7,4.99,000.00,022.0,021.4,000.0,030.2,023.5,10.9,0000.0,0004.06,0002.48,0002.03
2024-01-31 15:49:00,SystemResetWarning,0831.7,5.00,000.00,022.0,021.4,000.0,030.2,023.6,10.5,0000.0,0004.35,0002.59,0002.07
2024-01-31 15:50:00,SystemResetWarning,0831.7,5.00,000.00,022.1,021.4,000.0,030.2,023.6,10.5,0000.0,0004.34,0002.69,0002.10
2024-01-31 15:51:00,SystemResetWarning,0831.7,5.00,000.00,022.1,021.5,000.0,030.2,023.6,10.6,0000.0,0004.38,0002.79,0002.12
2024-01-31 15:52:00,SystemResetWarning,0831.7,5.01,000.00,022.1,021.5,000.0,030.2,023.6,10.6,0000.0,0004.68,0002.84,0002.16
2024-01-31 15:53:00,SystemResetWarning,0831.7,5.01,000.00,022.1,021.5,000.0,030.3,023.6,11.7,0000.0,0004.94,0002.81,0002.15
2024-01-31 15:54:00,SystemResetWarning,0831.7,5.00,000.00,022.1,021.5,000.0,030.3,023.7,12.6,0000.0,0004.97,0002.75,0002.09
2024-01-31 15:55:00,SystemResetWarning,0831.6,5.00,000.00,022.1,021.5,000.0,030.3,023.7,12.1,0000.0,0004.87,0002.70,0002.07
2024-01-31 15:56:00,SystemResetWarning,0831.6,5.01,000.00,022.2,021.6,000.0,030.3,023.7,11.8,0000.0,0004.75,0002.64,0002.05
2024-01-31 15:57:00,SystemResetWarning,0831.7,5.00,000.00,022.2,021.6,000.0,030.3,023.7,11.6,0000.0,0004.75,0002.58,0002.01
2024-01-31 15:58:00,SystemResetWarning,0831.7,4.99,000.00,022.2,021.6,000.0,030.3,023.7,11.1,0000.0,0005.68,0002.52,0001.98
